Location: Trois-Rivi�res
(46.3500°N, 72.5500°W)
Time: 07:04:14
(UTC-04:00)

Daily predictions for brighter satellites

Satellite Brightness Start Highest point End
(mag) Time Altitude Azimuth Time Altitude Azimuth Time Altitude Azimuth
ATLAS CENTAUR R/B 4.4 20:41:03 10° SSW 20:47:26 54° ESE 21:05:57 10° NE
Aureole 2 Rocket 3.1 21:04:32 10° N 21:07:15 29° ENE 21:09:47 10° SE
Thor Agena Rocket 4.2 21:03:49 10° N 21:09:03 64° WNW 21:14:13 10° SSW
CZ-4C R/B 3.9 21:03:11 10° NNW 21:09:23 35° NE 21:16:20 10° E
BREEZE-M R/B 2.3 21:08:16 10° WSW 21:12:37 73° SSE 21:15:18 10° ENE
Cosmos 1544 Rocket 4.1 21:08:30 10° N 21:12:44 42° ENE 21:16:58 10° SSE
Cosmos 2150 Rocket 4.3 21:07:27 10° NNW 21:12:49 60° ENE 21:18:03 10° SE
CZ-4B DEB 4.5 21:10:41 10° SSE 21:14:11 85° ENE 21:17:40 10° NNW
Cosmos 2084 3.4 21:13:05 10° SSW 21:17:18 57° SE 21:21:19 10° NE
Cosmos 1975 3.7 21:16:39 10° NNW 21:20:35 51° W 21:24:28 10° S
Cosmos 2233 Rocket 4.1 21:15:41 10° S 21:21:50 86° W 21:28:06 10° N
SJ 16-02 2.5 21:20:38 10° N 21:24:35 30° ENE 21:28:17 11° ESE
SL-08 RB Rocket 3.9 21:21:03 10° SSE 21:25:29 58° ENE 21:30:02 10° N
Cosmos 2360 Rocket 2.5 21:21:32 10° NNW 21:27:07 57° ENE 21:32:18 12° SE
Resurs 01 Rocket 3.3 21:25:13 10° SSW 21:29:10 32° W 21:33:07 10° NNW
Meteor 1-19 Rocket 4.4 21:23:19 10° S 21:29:14 85° E 21:35:11 10° NNE
Cosmos 1980 Rocket 4.3 21:25:03 10° NW 21:29:18 22° W 21:33:32 10° SSW
Spot 2 Rocket 4.4 21:25:07 10° S 21:29:57 47° W 21:34:50 10° NNW
Cosmos 2219 Rocket 3.8 21:26:22 10° N 21:30:46 23° NE 21:35:09 10° E
ATLAS CENTAUR R/B 4.4 21:30:37 10° W 21:32:08 11° WSW 21:33:40 10° SW
Cosmos 1536 Rocket 4.4 21:28:15 10° SSE 21:32:15 34° E 21:36:17 10° NNE
Cosmos 540 Rocket 4.3 21:28:07 10° SSE 21:32:37 31° E 21:37:09 10° NE
Cosmos 1937 Rocket 3.7 21:28:00 10° NNW 21:33:08 69° WSW 21:38:13 10° S
Cosmos 2298 Rocket 4.1 21:28:21 10° NNW 21:33:41 85° WSW 21:38:57 10° SSE
Cosmos 1666 4.0 21:30:12 10° NNW 21:33:51 41° W 21:37:30 10° SSW
Cosmos 468 Rocket 4.4 21:29:00 10° SSW 21:34:15 71° WNW 21:39:30 10° NNE
Helios 1B rocket 4.0 21:32:36 10° NE 21:35:35 19° E 21:37:36 14° SE
Meteor 2-9 Rocket 4.2 21:34:57 10° NNW 21:40:20 85° W 21:45:45 10° S
Cosmos 1763 Rocket 3.5 21:35:04 10° SSW 21:40:23 86° ESE 21:45:42 10° NNE
USA 32 4.0 21:40:26 10° N 21:45:43 88° E 21:50:57 10° S
Cosmos 841 Rocket 3.5 21:40:45 10° S 21:45:56 69° ESE 21:51:13 10° NNE
Cosmos 1743 4.4 21:42:55 10° NNW 21:46:21 32° W 21:49:45 10° SSW
MetOp-A 4.4 21:45:03 10° S 21:50:22 69° WSW 21:55:45 10° NNW
SPOT 5 3.0 21:49:27 16° SE 21:52:47 54° ENE 21:57:18 10° N
Cosmos 2333 Rocket 3.5 21:48:07 10° N 21:53:03 29° NE 21:57:38 11° ESE
Meteor 1-23 Rocket 4.3 21:49:07 10° S 21:54:34 59° E 22:00:02 10° NNE
USA 234 3.2 21:48:37 10° NE 21:55:13 84° SE 22:01:48 10° SW
Cosmos 372 Rocket 4.2 21:50:17 10° NNW 21:55:21 55° ENE 21:59:02 18° SE
COSMOS 2428 3.4 21:50:58 10° NNW 21:56:23 43° NE 22:00:36 16° ESE
Terra 2.8 21:55:07 16° ESE 21:58:15 33° ENE 22:02:30 10° N
CZ-2C R/B 4.3 22:00:16 15° ESE 22:03:57 33° ENE 22:08:55 10° N
CARTOSAT-1 4.3 22:02:12 19° SE 22:04:48 39° ENE 22:08:50 10° N
Lacrosse 5 rocket 1.3 22:00:30 10° NW 22:04:52 79° SW 22:07:25 22° SE
Cosmos 1513 Rocket 4.4 22:00:12 10° S 22:06:18 82° E 22:12:31 10° N
Cosmos 1833 4.2 22:00:44 10° SSW 22:06:27 76° ESE 22:12:09 10° NNE
Meteor 2-4 Rocket 4.0 22:01:26 10° SSW 22:06:52 68° WNW 22:12:29 10° N
NOSS 3-2 (C) 4.3 22:02:15 10° WSW 22:08:11 57° NW 22:14:52 10° NE
Cosmos 2034 Rocket 3.9 22:03:34 10° S 22:09:36 71° E 22:15:45 10° NNE
Spot 1 4.4 22:08:59 22° SE 22:11:18 47° ENE 22:15:13 10° N
ERS-1 Rocket 3.3 22:07:45 13° S 22:12:07 64° WSW 22:17:08 10° NNW
Cosmos 1464 Rocket 4.1 22:06:47 10° S 22:13:10 82° W 22:19:35 10° N
Abrixas rocket 2.3 22:11:34 10° W 22:14:47 74° NNW 22:18:02 10° ENE
ISS -2.2 22:13:06 10° W 22:16:10 36° NNW 22:19:13 10° ENE
Cosmos 1025 Rocket 3.4 22:14:38 23° SSE 22:16:58 45° E 22:21:10 10° NNE
Cosmos 2297 Rocket 4.2 22:17:57 10° E 22:18:25 10° E 22:18:56 10° E
USA 245 3.9 22:16:24 17° S 22:18:58 52° W 22:23:22 10° NNW
Iridium 90 3.2 22:19:29 54° SSW 22:19:52 81° W 22:22:02 10° N
Cosmos 2322 3.8 22:14:07 10° NNW 22:19:52 80° WSW 22:23:44 22° SSE
SPOT 1/Viking Rocket 3.5 22:16:50 20° SSE 22:20:33 87° WSW 22:25:45 10° NNW
Cosmos 1515 4.0 22:16:59 12° SSW 22:20:34 66° W 22:24:23 10° N
Cosmos 1356 4.1 22:17:10 10° SSW 22:20:34 53° WNW 22:23:59 10° N
ARGOS 4.3 22:15:58 10° SSW 22:20:57 38° W 22:25:59 10° NNW
Cosmos 2322 Rocket 3.9 22:16:25 10° NW 22:20:59 26° WSW 22:25:33 10° SSW
Cosmos 2227 Rocket 4.0 22:21:07 12° ESE 22:21:43 13° E 22:24:02 10° ENE
Cosmos 1455 Rocket 4.4 22:19:09 10° NNW 22:23:07 35° W 22:27:07 10° SSW
H-2A R/B 3.0 22:19:42 10° SSW 22:24:18 41° W 22:29:05 10° NNW
Tiangong 2 1.4 22:21:42 10° WSW 22:24:43 43° S 22:25:10 39° SSE
Cosmos 2237 Rocket 3.6 22:20:15 10° N 22:25:11 29° NE 22:29:13 14° ESE
CENTAUR R/B 2.7 22:21:38 10° SW 22:27:44 80° NW 22:34:50 10° NE
SL-16 R/B 4.2 22:26:10 10° NW 22:30:18 21° W 22:34:26 10° SSW
Meteor 1-29 3.2 22:27:02 10° NNE 22:30:27 51° E 22:31:30 36° SSE
Cosmos 1340 Rocket 4.2 22:26:45 10° SW 22:30:33 38° WNW 22:34:24 10° N
Cosmos 1125 Rocket 3.5 22:25:19 10° NNW 22:30:36 84° WSW 22:33:42 25° SSE
Cosmos 1066 Rocket 4.3 22:30:18 23° SSE 22:33:29 56° E 22:38:50 10° NNE
YAOGAN 11 4.5 22:31:34 28° SE 22:33:45 55° ENE 22:38:11 10° N
Shenzhou-11 Module 4.1 22:34:47 10° WSW 22:36:04 16° SW 22:36:04 16° SW
Cosmos 1634 Rocket 4.4 22:33:15 24° SSE 22:36:52 49° E 22:42:56 10° NNE
DMSP B5D2-2 4.3 22:33:03 10° N 22:38:20 71° WNW 22:43:33 10° SSW
Iridium 40 4.1 22:39:00 61° W 22:39:03 62° W 22:41:24 10° N
Helios 1A 4.0 22:41:57 19° SSW 22:44:29 40° W 22:48:27 10° NNW
Meteor 1-22 Rocket 4.3 22:43:37 10° N 22:48:56 58° ENE 22:51:22 31° SE
Cosmos 2219 3.4 22:48:54 27° S 22:51:51 52° ESE 22:57:25 10° NE
Okean 2 3.9 22:50:55 20° SSW 22:53:39 57° WNW 22:57:47 10° N
Cosmos 1766 3.7 22:50:25 10° N 22:54:18 50° ENE 22:55:20 39° ESE
Nimbus 7 Rocket 4.4 22:51:52 10° NNE 22:57:46 71° ESE 23:01:14 26° S
Cosmos 1892 Rocket 4.1 22:57:18 36° SE 22:58:17 42° E 23:02:23 10° NNE
CZ-4C R/B 2.9 22:51:30 10° NW 22:58:39 80° SW 23:03:19 28° SSE
Intercosmos 25 4.2 22:58:18 33° ESE 22:58:53 35° E 23:02:07 10° NNE
SAR-Lupe-4 4.1 23:00:31 39° ESE 23:01:10 44° ENE 23:04:36 10° N
BREEZE-M DEB 4.1 22:58:26 10° WNW 23:01:10 59° W 23:01:10 59° W
SJ 16-02 2.8 22:59:15 10° NW 23:03:08 30° W 23:05:18 20° SW
Cosmos 1544 3.2 23:00:34 10° NNW 23:04:16 70° W 23:05:13 46° SSW
Cosmos 1356 Rocket 4.0 23:03:27 22° SSW 23:06:02 55° WNW 23:10:16 10° N
Okean 1-7 Rocket 3.6 23:05:54 36° S 23:07:47 88° E 23:12:21 10° N
COSMOS 2455 3.7 23:07:46 28° SE 23:08:44 29° ESE 23:13:50 10° NE
Cosmos 2360 Rocket 3.9 23:06:17 10° NW 23:10:42 24° WSW 23:14:04 14° SW
Helios 1B rocket 3.5 23:07:07 10° N 23:11:03 42° WNW 23:13:58 16° SW
Cosmos 2228 3.1 23:07:37 10° N 23:11:54 63° E 23:12:59 45° SE
CZ-2C R/B 2.8 23:06:48 10° NNE 23:12:25 64° ESE 23:14:46 35° S
Cosmos 2219 Rocket 2.2 23:09:42 10° NNW 23:15:18 71° WSW 23:17:36 36° S
Cosmos 1726 Rocket 3.5 23:11:37 10° N 23:16:03 90° ESE 23:17:20 46° S
Cosmos 1092 Rocket 4.4 23:10:47 10° NNW 23:17:01 59° W 23:20:43 25° SSW
SAR-Lupe-1 4.2 23:18:42 55° ESE 23:19:06 60° ENE 23:22:40 10° N
Cosmos 2058 Rocket 3.0 23:25:53 10° N 23:30:27 89° E 23:31:33 52° S
Cosmos 1805 3.1 23:26:31 10° N 23:30:28 90° W 23:31:01 65° S
Cosmos 1842 3.1 23:31:21 65° SSE 23:31:47 74° E 23:35:42 10° NNE
Cosmos 1470 3.7 23:31:35 10° N 23:35:09 33° ENE 23:35:31 32° E
Iridium 4 Rocket 4.0 23:33:13 39° SE 23:35:12 59° E 23:41:00 10° N
BREEZE-M R/B 3.2 23:33:17 10° WNW 23:35:35 37° N 23:35:35 37° N
Terra 3.1 23:33:59 23° SW 23:35:59 31° W 23:40:13 10° NNW
Cosmos 2333 Rocket 2.6 23:32:04 10° NW 23:37:38 55° WSW 23:39:38 37° SSW
USA 234 4.4 23:31:46 10° NE 23:37:56 45° NNW 23:44:06 10° W
COSMOS 2428 3.8 23:35:28 10° NW 23:40:29 33° WSW 23:42:36 25° SW
SL-16 R/B 3.0 23:36:39 10° NNW 23:42:05 43° NE 23:44:53 26° ESE
Cosmos 489 Rocket 4.5 23:36:47 10° NNW 23:43:10 78° WSW 23:45:42 39° S
Lacrosse 5 rocket 3.7 23:41:39 10° W 23:43:05 12° WSW 23:43:05 12° WSW
CZ-2C R/B 4.0 23:41:20 27° SW 23:43:39 41° W 23:48:58 10° NNW
NOSS 0 Rocket 4.1 23:38:18 10° NNW 23:44:29 63° WSW 23:46:47 38° S
CZ-4C R/B 4.4 23:44:28 35° ESE 23:45:32 41° ENE 23:49:42 10° N
Cosmos 2026 Rocket 4.4 23:40:35 10° NNW 23:46:35 54° W 23:49:21 31° SSW
ALOS 2 3.2 23:46:19 39° ESE 23:47:16 46° ENE 23:51:29 10° N
SL-19 R/B 4.5 23:43:18 10° NNE 23:49:27 64° ESE 23:51:28 41° SSE
Cosmos 1655 Rocket 4.0 23:44:03 10° N 23:50:27 77° W 23:53:03 38° S
Abrixas rocket 2.7 23:48:11 10° WNW 23:51:14 59° N 23:51:14 59° N
Cosmos 1980 3.7 23:46:09 10° NNW 23:51:47 69° WSW 23:53:30 44° S
Cosmos 1953 2.4 23:47:49 10° N 23:51:47 60° E 23:52:04 58° ESE
Cosmos 2279 Rocket 4.0 23:50:12 34° SSW 23:53:05 77° W 23:59:20 10° N
ISS -2.1 23:50:07 10° WNW 23:53:09 34° N 23:55:04 18° ENE
